[[{"header":{"parameterUnit":"m.s-1","parameterCategory":1,"la1":30.2991,"la2":30.254,"lo1":-89.0895,"lo2":-89.0444,"dy":0.0017,"dx":0.0017,"nx":28,"ny":28,"refTime":"2024-02-02T09:00:00:Z","depth":0,"parameterNumber":2,"parameterNumberName":"U-component_of_WINDS"},"data":[0,0,0,0,0,0,0,0,0,0,0,0,0,0,0,0,0,0,0,0,0,0,0,0,0,0,0,0,0,0,0,0,0,0,0,0,0,0,0,0,0,0,0,0,0,0,0,0,0,0,0,0,0,0,0,0,0,0,-3.5346,-3.5345,0,-3.5329,-3.5328,-3.5328,-3.5216,-3.5213,-3.521,-3.5207,-3.519,-3.5192,-3.5194,0,0,0,0,0,0,0,0,0,0,0,0,0,-3.5282,-3.5284,-3.5346,-3.5345,-3.5345,-3.5329,-3.5328,-3.5328,-3.5216,-3.5213,-3.5209,-3.5206,-3.519,-3.5192,-3.5195,0,0,0,0,0,0,0,0,0,0,0,0,0,-3.5292,-3.5284,-3.5346,-3.5287,-3.5282,-3.5329,-3.5328,-3.5328,-3.5217,-3.5213,-3.5208,-3.5205,-3.5189,-3.5192,-3.5195,-3.5297,0,0,-3.5205,-3.5206,0,0,0,0,0,0,0,0,-3.5291,-3.5294,-3.5296,-3.5291,-3.5285,-3.527,-3.5299,-3.5318,-3.5218,-3.5241,-3.5207,-3.5203,-3.522,-3.522,-3.5226,-3.5296,-3.5295,-3.5205,-3.5207,-3.5208,-3.5209,0,0,0,0,0,0,0,-3.5291,-3.5294,-3.5339,-3.5296,-3.529,-3.5262,-3.5259,-3.5302,-3.5254,-3.5239,-3.5231,-3.523,-3.5216,-3.5224,-3.5225,-3.5295,-3.5205,-3.5208,-3.5209,-3.5211,-3.5448,-3.5453,0,0,0,0,0,0,-3.5298,-3.5295,-3.5339,-3.5338,-3.5278,-3.5267,-3.5263,-3.5279,-3.5253,-3.5245,-3.5234,-3.5225,-3.522,-3.5221,-3.5224,-3.5342,-3.5208,-3.5211,-3.5213,-3.5444,-3.5449,-3.5454,0,0,0,0,0,0,-3.5297,-3.5303,-3.534,-3.5314,-3.5317,-3.5272,-3.5291,-3.5281,-3.5288,-3.5249,-3.524,-3.525,-3.5217,-3.522,-3.528,-3.534,-3.5212,-3.5215,-3.5439,-3.5446,-3.5452,-3.5579,0,0,0,0,0,0,-3.5296,-3.5304,-3.5341,-3.5316,-3.5319,-3.5396,-3.5295,-3.5283,-3.5293,-3.5282,-3.5262,-3.5255,-3.5214,-3.5276,-3.5283,-3.5342,-3.5218,-3.5433,-3.5442,-3.545,-3.5569,-3.5589,-3.5606,0,0,0,0,0,-3.5294,-3.5378,-3.5344,-3.535,-3.5365,-3.54,-3.5401,-3.5352,-3.5299,-3.5337,-3.5312,-3.5255,-3.5332,-3.5283,-3.529,-3.5351,-3.5429,-3.5439,-3.5449,-3.5561,-3.5585,-3.5606,0,0,0,0,0,0,-3.5411,-3.5373,-3.5335,-3.5413,-3.5411,-3.5381,-3.5427,-3.538,-3.5392,-3.5381,-3.532,-3.5316,-3.5386,-3.5374,-3.532,-3.5449,-3.5371,-3.5383,-3.5454,-3.5477,-3.5495,-3.5496,-3.522,0,0,0,0,0,-3.5446,-3.5477,-3.5442,-3.5514,-3.5515,-3.5472,-3.5485,-3.5448,-3.5443,-3.5441,-3.5421,-3.5418,-3.5442,-3.5458,-3.5478,-3.5567,-3.5562,-3.5613,-3.5632,-3.5647,-3.5658,-3.5706,-3.5728,-3.5487,-3.5487,-3.5487,0,0,-3.5518,-3.5501,-3.5524,-3.5537,-3.5531,-3.5565,-3.5471,-3.5511,-3.5536,-3.5447,-3.5502,-3.5488,-3.5481,-3.5557,-3.5589,-3.5549,-3.5724,-3.566,-3.5672,-3.5675,-3.5718,-3.5741,-3.5762,-3.5494,-3.5492,-3.5491,0,0,-3.5667,-3.5657,-3.5717,-3.5713,-3.5705,-3.5675,-3.569,-3.5668,-3.5655,-3.571,-3.5644,-3.5673,-3.5715,-3.5713,-3.5718,-3.5869,-3.5817,-3.5877,-3.5974,-3.6021,-3.604,-3.6056,-3.6111,-3.6131,-3.5888,-3.5888,-3.5888,0,-3.5757,-3.5806,-3.5753,-3.5798,-3.5806,-3.5728,-3.5788,-3.5786,-3.5786,-3.5793,-3.5749,-3.58,-3.579,-3.5865,-3.5902,-3.5908,-3.5923,-3.5879,-3.6041,-3.6057,-3.6072,-3.6124,-3.6144,-3.5896,-3.5895,-3.5894,-3.5893,0,-3.5919,-3.5954,-3.6003,-3.6005,-3.6018,-3.6071,-3.6026,-3.6046,-3.6009,-3.5985,-3.6043,-3.6028,-3.6044,-3.6059,-3.6022,-3.6129,-3.6105,-3.6052,-3.5973,-3.6103,-3.6151,-3.617,-3.5906,-3.5903,-3.5901,-3.5899,0,0,-3.6139,-3.6112,-3.6131,-3.6132,-3.6118,-3.6144,-3.6194,-3.621,-3.6229,-3.6231,-3.6272,-3.631,-3.6261,-3.6267,-3.6229,-3.6271,-3.6393,-3.6213,-3.6212,-3.6247,-3.6511,-3.6551,-3.6575,-3.6359,-3.6362,-3.6365,-3.6512,0,-3.6283,-3.6366,-3.632,-3.641,-3.6442,-3.6369,-3.6412,-3.6409,-3.6389,-3.6413,-3.639,-3.6419,-3.6352,-3.6355,-3.6393,-3.637,-3.6445,-3.6359,-3.6396,-3.6398,-3.6401,-3.66,-3.6642,-3.6781,-3.653,-3.6533,-3.6535,0,-3.6461,-3.6472,-3.6565,-3.6547,-3.6559,-3.6598,-3.661,-3.6635,-3.663,-3.6612,-3.662,-3.6573,-3.6621,-3.6543,-3.6609,-3.6551,-3.6564,-3.6555,-3.656,-3.6561,-3.6475,-3.6607,-3.6824,-3.6845,-3.6564,-3.6562,-3.656,0,-3.6614,-3.6652,-3.6713,-3.6715,-3.6695,-3.6725,-3.6718,-3.6709,-3.6723,-3.6733,-3.6741,-3.6757,-3.6766,-3.678,-3.6739,-3.6686,-3.6811,-3.6729,-3.6798,-3.6799,-3.6827,-3.6826,-3.705,-3.6836,-3.6835,-3.6835,-3.6834,0,-3.6779,-3.6839,-3.6781,-3.6819,-3.6884,-3.6832,-3.6898,-3.6883,-3.6877,-3.691,-3.6848,-3.6881,-3.6825,-3.6853,-3.6821,-3.6881,-3.6886,-3.6873,-3.6864,-3.6879,-3.6881,-3.6886,-3.6876,-3.684,-3.6839,-3.6838,-3.6837,0,-3.696,-3.6924,-3.6986,-3.6962,-3.6958,-3.7007,-3.6987,-3.7021,-3.6997,-3.7041,-3.7048,-3.701,-3.704,-3.7001,-3.7026,-3.7005,-3.7087,-3.7064,-3.7089,-3.7082,-3.7154,-3.7148,-3.7389,-3.7418,-3.7186,-3.7188,-3.719,0,-3.7068,-3.7112,-3.7095,-3.7113,-3.711,-3.714,-3.7154,-3.7105,-3.7121,-3.7121,-3.7155,-3.718,-3.7196,-3.7248,-3.7222,-3.7242,-3.7218,-3.7302,-3.7221,-3.7235,-3.722,-3.7218,-3.7223,-3.7318,-3.7321,-3.7323,-3.7325,0,-3.7263,-3.7244,-3.7265,-3.7282,-3.73,-3.731,-3.7316,-3.7335,-3.7283,-3.7305,-3.7335,-3.7349,-3.7376,-3.7401,-3.7414,-3.7407,-3.7359,-3.7351,-3.7368,-3.7384,-3.7397,-3.7391,-3.7135,-3.7346,-3.7344,-3.7342,-3.7341,-3.734,-3.7411,-3.7448,-3.7442,-3.7469,-3.7468,-3.7475,-3.7507,-3.7487,-3.7511,-3.7529,-3.7499,-3.7537,-3.7533,-3.7546,-3.7545,-3.7574,-3.7538,-3.7563,-3.7569,-3.7576,-3.7587,-3.7393,-3.7576,-3.7576,-3.7575,-3.7575,-3.7574,0,-3.7604,-3.7597,-3.7622,-3.7633,-3.7654,-3.7607,-3.7611,-3.7633,-3.7667,-3.7667,-3.7686,-3.7721,-3.7746,-3.7724,-3.7744,-3.7772,-3.775,-3.7779,-3.7777,-3.7776,-3.7618,-3.7601,-3.7797,-3.7797,-3.7797,-3.7797,-3.7797,-3.7796,-3.7707,-3.7767,-3.7747,-3.7807,-3.7799,-3.7836,-3.7843,-3.785,-3.785,-3.7892,-3.7913,-3.7898,-3.789,-3.791,-3.7931,-3.7924,-3.7934,-3.7971,-3.7957,-3.7809,-3.7787,-3.7766,-3.775,-3.7974,-3.7974,-3.8112,-3.8114,-3.8115]},{"header":{"parameterUnit":"m.s-1","parameterCategory":1,"la1":30.2991,"la2":30.254,"lo1":-89.0895,"lo2":-89.0444,"dy":0.0017,"dx":0.0017,"nx":28,"ny":28,"refTime":"2024-02-02T09:00:00:Z","depth":0,"parameterNumber":3,"parameterNumberName":"V-component_of_WINDS"},"data":[0,0,0,0,0,0,0,0,0,0,0,0,0,0,0,0,0,0,0,0,0,0,0,0,0,0,0,0,0,0,0,0,0,0,0,0,0,0,0,0,0,0,0,0,0,0,0,0,0,0,0,0,0,0,0,0,0,0,0.5114,0.5114,0,0.5127,0.5128,0.5128,0.5141,0.5141,0.5141,0.5141,0.5154,0.5154,0.5154,0,0,0,0,0,0,0,0,0,0,0,0,0,0.5101,0.5101,0.5114,0.5114,0.5115,0.5127,0.5128,0.5128,0.5141,0.5141,0.5141,0.5141,0.5154,0.5154,0.5154,0,0,0,0,0,0,0,0,0,0,0,0,0,0.5109,0.5101,0.5114,0.5123,0.5124,0.5127,0.5128,0.5128,0.5141,0.5141,0.5141,0.5141,0.5154,0.5154,0.5154,0.5151,0,0,0.5155,0.5155,0,0,0,0,0,0,0,0,0.5109,0.511,0.5121,0.5122,0.5123,0.5133,0.5127,0.5135,0.5141,0.5134,0.5141,0.5142,0.5147,0.5147,0.5149,0.5151,0.5152,0.5155,0.5155,0.5155,0.5155,0,0,0,0,0,0,0,0.5108,0.5109,0.5119,0.5121,0.5123,0.5126,0.5127,0.5129,0.5139,0.5135,0.5136,0.5137,0.5147,0.5149,0.515,0.5152,0.5155,0.5155,0.5155,0.5156,0.5152,0.5152,0,0,0,0,0,0,0.5106,0.5109,0.5119,0.512,0.5117,0.5126,0.5128,0.5129,0.5139,0.514,0.5137,0.5138,0.5148,0.5149,0.515,0.5147,0.5155,0.5156,0.5156,0.5153,0.5152,0.5152,0,0,0,0,0,0,0.5106,0.5107,0.5119,0.5115,0.5116,0.5126,0.5128,0.5129,0.5131,0.514,0.5142,0.5137,0.5149,0.515,0.5151,0.5148,0.5156,0.5156,0.5153,0.5153,0.5152,0.5141,0,0,0,0,0,0,0.5106,0.5107,0.5106,0.5114,0.5116,0.5119,0.5127,0.513,0.5132,0.5133,0.5141,0.5143,0.5149,0.515,0.5151,0.5148,0.5156,0.5153,0.5153,0.5152,0.5142,0.514,0.5139,0,0,0,0,0,0.5105,0.5102,0.5106,0.5107,0.5115,0.5119,0.512,0.5127,0.5132,0.513,0.5136,0.5142,0.5148,0.515,0.5151,0.5149,0.5154,0.5153,0.5152,0.5142,0.514,0.5139,0,0,0,0,0,0,0.5092,0.5103,0.5107,0.5107,0.5112,0.5121,0.512,0.5125,0.5129,0.513,0.5139,0.5141,0.5141,0.5145,0.5147,0.5146,0.5152,0.5151,0.5143,0.5142,0.5141,0.514,0.5156,0,0,0,0,0,0.5089,0.5091,0.51,0.5099,0.5101,0.511,0.5112,0.5117,0.5123,0.5125,0.5131,0.5136,0.5139,0.514,0.5144,0.5142,0.5144,0.5141,0.514,0.5138,0.5138,0.5138,0.5137,0.515,0.515,0.515,0,0,0.5083,0.5089,0.509,0.5096,0.5101,0.5103,0.5112,0.5113,0.5115,0.5125,0.5127,0.5131,0.5137,0.5137,0.5137,0.514,0.5135,0.5138,0.5137,0.5137,0.5138,0.5137,0.5135,0.515,0.515,0.515,0,0,0.5072,0.5077,0.5077,0.5081,0.5088,0.5094,0.5094,0.5103,0.5106,0.5108,0.5116,0.5118,0.5123,0.5127,0.513,0.5122,0.5128,0.5123,0.5116,0.5117,0.5116,0.5115,0.5113,0.5112,0.5122,0.5122,0.5122,0,0.5064,0.5067,0.5076,0.5077,0.508,0.509,0.509,0.5094,0.5101,0.5103,0.5107,0.5113,0.5118,0.512,0.5118,0.512,0.512,0.5122,0.5115,0.5114,0.5114,0.5112,0.5111,0.5122,0.5122,0.5122,0.5122,0,0.5057,0.5059,0.5058,0.5066,0.5068,0.5069,0.5078,0.508,0.5085,0.5091,0.5093,0.5099,0.5104,0.5104,0.5109,0.5107,0.5109,0.5113,0.5119,0.5112,0.511,0.5109,0.5121,0.5121,0.5121,0.5122,0,0,0.5039,0.5051,0.5051,0.5055,0.5063,0.5066,0.5067,0.5072,0.5074,0.5079,0.508,0.5084,0.5089,0.5092,0.5098,0.5098,0.5093,0.5103,0.5103,0.5101,0.5091,0.5088,0.5087,0.5096,0.5096,0.5096,0.5091,0,0.503,0.5034,0.5042,0.5042,0.5045,0.5055,0.5056,0.5061,0.5067,0.507,0.5076,0.5079,0.5084,0.5086,0.5087,0.5093,0.5091,0.5094,0.5098,0.5098,0.5097,0.5086,0.5082,0.5077,0.509,0.509,0.509,0,0.5021,0.5026,0.5028,0.5037,0.5038,0.5039,0.5045,0.5048,0.5054,0.5058,0.5062,0.5069,0.5071,0.5076,0.5079,0.5081,0.5084,0.5087,0.5087,0.5088,0.5094,0.5087,0.5075,0.5074,0.5089,0.5089,0.5089,0,0.5009,0.5016,0.5018,0.5021,0.5031,0.5032,0.5036,0.5043,0.5046,0.5051,0.5053,0.5058,0.5061,0.5065,0.5073,0.5076,0.5075,0.5081,0.5079,0.5079,0.5079,0.5079,0.5068,0.5079,0.5079,0.5079,0.5079,0,0.4999,0.5,0.5012,0.5013,0.5015,0.5024,0.5024,0.503,0.5036,0.5038,0.5047,0.5049,0.5059,0.5062,0.5068,0.507,0.5071,0.5075,0.5076,0.5074,0.5074,0.5076,0.5077,0.5079,0.5079,0.5079,0.5079,0,0.4986,0.4994,0.4997,0.5007,0.501,0.501,0.5019,0.502,0.5026,0.5029,0.5031,0.504,0.5044,0.5053,0.5059,0.5063,0.5064,0.5067,0.5062,0.5063,0.5061,0.5061,0.5051,0.5051,0.5062,0.5062,0.5062,0,0.4979,0.498,0.4991,0.4993,0.4997,0.5001,0.5004,0.5013,0.5016,0.5024,0.5025,0.503,0.5035,0.5042,0.5049,0.5054,0.5057,0.5053,0.5058,0.5056,0.5058,0.5058,0.5059,0.5052,0.5052,0.5052,0.5052,0,0.4968,0.4972,0.4976,0.4982,0.4986,0.4991,0.4997,0.4998,0.5009,0.5012,0.5017,0.502,0.5027,0.5032,0.5039,0.5043,0.505,0.505,0.505,0.5048,0.5046,0.5048,0.506,0.5051,0.5051,0.5051,0.5051,0.5051,0.4958,0.4959,0.4967,0.4972,0.4977,0.4982,0.4985,0.4991,0.4996,0.5002,0.5007,0.5012,0.5019,0.5028,0.5033,0.5037,0.5039,0.5039,0.5039,0.5039,0.5038,0.5045,0.5038,0.5038,0.5038,0.5038,0.5038,0,0.4947,0.4953,0.4957,0.4965,0.4969,0.4975,0.4981,0.4984,0.4988,0.4994,0.4999,0.5005,0.501,0.5018,0.5024,0.5026,0.5029,0.5027,0.5027,0.5028,0.5035,0.5035,0.5024,0.5024,0.5024,0.5024,0.5024,0.5024,0.4942,0.4945,0.495,0.4956,0.4962,0.4966,0.497,0.4975,0.498,0.4986,0.4991,0.4996,0.5003,0.501,0.5015,0.5017,0.5019,0.5017,0.502,0.5026,0.5028,0.5029,0.5029,0.5017,0.5017,0.5013,0.5013,0.5013]}]]